This is the latest recevied weather packets stored in our database for station/object N4HAC. If no packets are shown the sender has not sent any weather packets the latest 10 day(s).
| Time | Temp. | Humidity | Pressure | Rain* | Wind** | Luminosity | Snow |
|---|---|---|---|---|---|---|---|
| 1777871924 | 5° C | 84% | 1010.3 hPa | 0 mm | - | 0 W/m² | - |
| 1777871620 | 4.44° C | 88% | 1010.2 hPa | 0 mm | - | 0 W/m² | - |
| 1777871317 | 5° C | 86% | 1010.4 hPa | 0 mm | - | 0 W/m² | - |
| 1777871015 | 5° C | 84% | 1010.4 hPa | 0 mm | - | 0 W/m² | - |
| 1777870712 | 5° C | 84% | 1010.3 hPa | 0 mm | - | 0 W/m² | - |
| 1777870412 | 5° C | 84% | 1010.5 hPa | 0 mm | - | 0 W/m² | - |
| 1777870109 | 5° C | 83% | 1010.5 hPa | 0 mm | - | 0 W/m² | - |
| 1777869806 | 5° C | 83% | 1010.4 hPa | 0 mm | - | 0 W/m² | - |
| 1777869504 | 5° C | 83% | 1010.4 hPa | 0 mm | - | 0 W/m² | - |
| 1777869201 | 4.44° C | 86% | 1010.4 hPa | 0 mm | - | 0 W/m² | - |
| 1777868898 | 4.44° C | 86% | 1010.3 hPa | 0 mm | - | 0 W/m² | - |
| 1777868594 | 4.44° C | 86% | 1010.3 hPa | 0 mm | - | 0 W/m² | - |
| 1777868290 | 4.44° C | 87% | 1010.5 hPa | 0 mm | - | 0 W/m² | - |
| 1777867987 | 4.44° C | 86% | 1010.3 hPa | 0 mm | - | 0 W/m² | - |
| 1777867683 | 4.44° C | 84% | 1010.4 hPa | 0 mm | - | 0 W/m² | - |
| 1777867381 | 4.44° C | 84% | 1010.2 hPa | 0 mm | - | 0 W/m² | - |
| 1777867076 | 4.44° C | 85% | 1010.3 hPa | 0 mm | - | 0 W/m² | - |
| 1777866774 | 4.44° C | 86% | 1010.3 hPa | 0 mm | - | 0 W/m² | - |
| 1777866471 | 4.44° C | 84% | 1010.3 hPa | 0 mm | - | 0 W/m² | - |
| 1777866168 | 4.44° C | 84% | 1010.3 hPa | 0 mm | - | 0 W/m² | - |
| 1777865866 | 4.44° C | 84% | 1010.1 hPa | 0 mm | - | 0 W/m² | - |
| 1777865563 | 4.44° C | 84% | 1010.2 hPa | 0 mm | - | 0 W/m² | - |
| 1777865260 | 4.44° C | 84% | 1010.1 hPa | 0 mm | - | 0 W/m² | - |
| 1777864957 | 5° C | 82% | 1010.4 hPa | 0 mm | - | 0 W/m² | - |
| 1777864653 | 5° C | 80% | 1010.4 hPa | 0 mm | - | 0 W/m² | - |
* Rain latest hour (hover to see other rain measurements)
** Current wind speed in m/s (hover to see current wind gust speed)